Marathon, FL

7:04 AM EDT on August 17, 2017 (GMT -0400)
Florida Keys Marathon

Weather History for KMTH - December, 2014

Change the Weather History Date:

Thursday, December 25, 2014

  Actual Average Record
Temperature  
Mean Temperature 72 °F 70 °F  
Max Temperature 77 °F 76 °F 84 °F (1997)
Min Temperature 67 °F 65 °F 57 °F (1999)
Degree Days  
Heating Degree Days 0 1  
Month to date heating degree days 15 18  
Since 1 July heating degree days 21 19  
Cooling Degree Days 7 6  
Month to date cooling degree days 171 193  
Year to date cooling degree days 5157 4957  
Growing Degree Days 22 (Base 50)    
Moisture  
Dew Point 69 °F    
Average Humidity 87    
Maximum Humidity 100    
Minimum Humidity 73    
Precipitation  
Precipitation 1.16 in 0.06 in 1.16 in (2014)
Month to date precipitation 1.53 1.68  
Year to date precipitation 36.40 45.83  
Snow  
Snow 0.00 in - - ()
Month to date snowfall 0.0  
Since 1 July snowfall 0.0  
Snow Depth 0.00 in    
Sea Level Pressure  
Sea Level Pressure 30.07 in    
Wind  
Wind Speed 12 mph (North)    
Max Wind Speed 18 mph    
Max Gust Speed 25 mph    
Visibility 7 miles    
Events Rain , Thunderstorm    
T = Trace of Precipitation, MM = Missing Value Source: NWS Daily Summary

Daily Weather History Graph

Daily Weather History Graph

Search for Another Location

Airport or City:

Trip Planner

Search our weather history database for the weather conditions in past years. The results will help you decide how hot, cold, wet, or windy it might be!

Date:

Astronomy

Dec. 25, 2014 Rise Set
Actual Time 7:06 AM EST 5:42 PM EST
Civil Twilight 6:41 AM EST 6:07 PM EST
Nautical Twilight 6:12 AM EST 6:36 PM EST
Astronomical Twilight 5:44 AM EST 7:04 PM EST
Moon 10:00 AM EST (12/25) 9:50 PM EST (12/25)
Length of Visible Light 11h 26m
Length of Day
10h 36m
Waxing Crescent, 17% of the Moon is Illuminated
Dec 25
Waxing Crescent
Dec 28
First Quarter
Jan 4
Full
Jan 13
Last Quarter
Jan 20
New

Hourly Weather History & Observations

Time (EST) Temp. Dew Point Humidity Pressure Visibility Wind Dir Wind Speed Gust Speed Precip Events Conditions
12:01 AM 73.0 °F 73.0 °F 100% 30.01 in 4.0 mi West 8.1 mph 18.4 mph 0.03 in Rain Light Rain
12:09 AM 73.0 °F 73.0 °F 100% 30.01 in 1.8 mi WSW 8.1 mph 23.0 mph 0.11 in Rain Heavy Rain
12:18 AM 73.0 °F 73.0 °F 100% 30.00 in 4.0 mi West 8.1 mph - 0.12 in Rain , Thunderstorm Light Rain
12:34 AM 73.9 °F 73.9 °F 100% 30.00 in 7.0 mi WSW 8.1 mph - 0.12 in Rain Light Rain
12:43 AM 73.0 °F 73.0 °F 100% 30.00 in 1.0 mi WSW 8.1 mph 25.3 mph 0.31 in Rain Heavy Rain
12:46 AM 72.0 °F 72.0 °F 100% 30.00 in 1.0 mi WSW 6.9 mph 19.6 mph 0.37 in Rain , Thunderstorm Heavy Rain
12:53 AM 73.0 °F 73.0 °F 100% 30.00 in 1.0 mi WSW 6.9 mph - 0.48 in Rain , Thunderstorm Heavy Thunderstorms and Rain
1:07 AM 73.0 °F 73.0 °F 100% 30.00 in 1.2 mi South 8.1 mph 16.1 mph 0.15 in Rain Heavy Rain
1:16 AM 72.0 °F 72.0 °F 100% 29.99 in 3.0 mi South 5.8 mph - 0.16 in Rain Light Rain
1:26 AM 72.0 °F 72.0 °F 100% 29.99 in 1.8 mi South 8.1 mph 17.3 mph 0.25 in Rain Heavy Rain
1:36 AM 73.9 °F 73.9 °F 100% 29.99 in 3.0 mi SSW 10.4 mph - 0.28 in Rain Light Rain
1:53 AM 75.0 °F 75.0 °F 100% 29.99 in 7.0 mi SSW 5.8 mph - 0.28 in   Mostly Cloudy
2:53 AM 75.9 °F 75.9 °F 100% 29.99 in 9.0 mi SSW 5.8 mph - N/A   Overcast
3:20 AM 77.0 °F 77.0 °F 100% 29.99 in 8.0 mi SSW 6.9 mph - N/A   Overcast
3:49 AM 73.4 °F 73.4 °F 100% 30.00 in 9.0 mi WNW 9.2 mph 16.1 mph N/A   Mostly Cloudy
3:53 AM 73.0 °F 73.0 °F 100% 30.00 in 9.0 mi NNW 11.5 mph 19.6 mph N/A   Mostly Cloudy
4:00 AM 72.0 °F 72.0 °F 100% 30.01 in 8.0 mi NW 15.0 mph 21.9 mph N/A   Overcast
4:21 AM 71.1 °F 71.1 °F 100% 30.02 in 2.5 mi NNW 15.0 mph - 0.09 in Rain Light Rain
4:28 AM 71.1 °F 71.1 °F 100% 30.02 in 5.0 mi North 12.7 mph 20.7 mph 0.11 in Rain Rain
4:46 AM 71.1 °F 71.1 °F 100% 30.02 in 6.0 mi NNW 11.5 mph 17.3 mph 0.14 in Rain Light Rain
4:53 AM 71.1 °F 71.1 °F 100% 30.03 in 9.0 mi North 10.4 mph 19.6 mph 0.14 in   Overcast
5:17 AM 71.1 °F 71.1 °F 100% 30.03 in 10.0 mi North 10.4 mph - 0.00 in   Overcast
5:53 AM 72.0 °F 71.1 °F 97% 30.04 in 8.0 mi North 10.4 mph - 0.04 in Rain Light Rain
6:11 AM 72.0 °F 72.0 °F 100% 30.05 in 9.0 mi North 10.4 mph - 0.00 in   Overcast
6:53 AM 71.1 °F 71.1 °F 100% 30.08 in 6.0 mi North 15.0 mph - 0.02 in Rain Rain
7:00 AM 70.0 °F 69.1 °F 97% 30.09 in 3.0 mi NNW 12.7 mph 21.9 mph 0.04 in Rain Heavy Rain
7:08 AM 70.0 °F 69.1 °F 97% 30.09 in 2.5 mi NNW 15.0 mph 21.9 mph 0.11 in Rain Heavy Rain
7:20 AM 68.0 °F 66.0 °F 93% 30.08 in 3.0 mi North 15.0 mph 23.0 mph 0.22 in Rain Rain
7:53 AM 70.0 °F 66.0 °F 87% 30.10 in 10.0 mi North 12.7 mph - 0.22 in   Overcast
8:53 AM 71.1 °F 66.0 °F 84% 30.13 in 10.0 mi North 13.8 mph - N/A   Clear
9:53 AM 72.0 °F 66.9 °F 84% 30.14 in 10.0 mi North 13.8 mph - N/A   Mostly Cloudy
10:53 AM 73.0 °F 66.9 °F 81% 30.15 in 10.0 mi North 10.4 mph - N/A   Overcast
11:53 AM 73.0 °F 66.9 °F 81% 30.13 in 10.0 mi North 11.5 mph - N/A   Mostly Cloudy
12:53 PM 72.0 °F 66.0 °F 81% 30.12 in 10.0 mi North 11.5 mph 18.4 mph N/A   Overcast
1:53 PM 73.9 °F 66.0 °F 76% 30.10 in 10.0 mi NNE 9.2 mph - N/A   Scattered Clouds
2:53 PM 73.9 °F 66.0 °F 76% 30.10 in 10.0 mi North 10.4 mph - N/A   Overcast
3:40 PM 73.9 °F 66.9 °F 79% 30.10 in 10.0 mi NNE 9.2 mph - N/A   Overcast
3:53 PM 73.9 °F 66.0 °F 76% 30.11 in 10.0 mi NNE 8.1 mph - N/A   Overcast
4:53 PM 73.0 °F 66.0 °F 79% 30.11 in 10.0 mi NNE 16.1 mph - N/A   Overcast
5:43 PM 72.0 °F 64.0 °F 76% 30.12 in 10.0 mi NE 13.8 mph - N/A   Overcast
5:53 PM 72.0 °F 64.0 °F 76% 30.13 in 10.0 mi NNE 11.5 mph - N/A   Overcast
6:53 PM 71.1 °F 63.0 °F 75% 30.14 in 10.0 mi NNE 15.0 mph 21.9 mph N/A   Overcast
7:53 PM 71.1 °F 63.0 °F 75% 30.15 in 10.0 mi NNE 12.7 mph 21.9 mph N/A   Overcast
8:53 PM 71.1 °F 62.1 °F 73% 30.16 in 10.0 mi NNE 15.0 mph 21.9 mph N/A   Overcast
9:27 PM 71.1 °F 62.1 °F 73% 30.16 in 10.0 mi NE 16.1 mph - N/A   Overcast
9:53 PM 72.0 °F 62.1 °F 71% 30.17 in 10.0 mi NE 15.0 mph - N/A   Overcast
10:32 PM 72.0 °F 63.0 °F 73% 30.16 in 10.0 mi NE 12.7 mph 24.2 mph N/A   Overcast
10:53 PM 72.0 °F 63.0 °F 73% 30.16 in 10.0 mi NNE 12.7 mph - N/A   Overcast
11:28 PM 72.0 °F 64.0 °F 76% 30.15 in 10.0 mi NE 12.7 mph - N/A   Overcast
11:53 PM 72.0 °F 64.0 °F 76% 30.14 in 10.0 mi NE 13.8 mph - N/A   Overcast